This is the latest recevied weather packets stored in our database for station/object W4SKW. If no packets are shown the sender has not sent any weather packets the latest 10 day(s).
| Time | Temp. | Humidity | Pressure | Rain* | Wind** | Luminosity | Snow |
|---|---|---|---|---|---|---|---|
| 1777983341 | 9.44° C | 96% | 1016.3 hPa | 0 mm | - | 35 W/m² | - |
| 1777983038 | 9.44° C | 96% | 1016.3 hPa | 0 mm | - | 35 W/m² | - |
| 1777982735 | 8.89° C | 97% | 1016.3 hPa | 0 mm | - | 48 W/m² | - |
| 1777982430 | 8.89° C | 97% | 1016.3 hPa | 0 mm | - | 48 W/m² | - |
| 1777982125 | 8.89° C | 97% | 1016.3 hPa | 0 mm | - | 49 W/m² | - |
| 1777981822 | 8.89° C | 97% | 1016.3 hPa | 0 mm | - | 46 W/m² | - |
| 1777981519 | 8.33° C | 97% | 1016.2 hPa | 0 mm | - | 47 W/m² | - |
| 1777981204 | 7.78° C | 97% | 1016.2 hPa | 0 mm | - | 35 W/m² | - |
| 1777980901 | 7.78° C | 97% | 1016.2 hPa | 0 mm | - | 35 W/m² | - |
| 1777980596 | 7.78° C | 97% | 1015.9 hPa | 0 mm | - | 21 W/m² | - |
| 1777980293 | 7.78° C | 97% | 1015.9 hPa | 0 mm | - | 21 W/m² | - |
| 1777979990 | 7.22° C | 97% | 1015.7 hPa | 0 mm | - | 19 W/m² | - |
| 1777979684 | 7.22° C | 97% | 1015.7 hPa | 0 mm | - | 14 W/m² | - |
| 1777979381 | 7.22° C | 97% | 1015.7 hPa | 0 mm | - | 14 W/m² | - |
| 1777979078 | 7.22° C | 97% | 1015.6 hPa | 0 mm | - | 10 W/m² | - |
| 1777978775 | 7.22° C | 97% | 1015.6 hPa | 0 mm | - | 8 W/m² | - |
| 1777978471 | 7.22° C | 97% | 1015.4 hPa | 0 mm | - | 5 W/m² | - |
| 1777978167 | 7.22° C | 97% | 1015.4 hPa | 0 mm | - | 2 W/m² | - |
| 1777977865 | 7.22° C | 97% | 1015.3 hPa | 0 mm | - | 2 W/m² | - |
| 1777977561 | 7.22° C | 97% | 1015.5 hPa | 0 mm | - | 1 W/m² | - |
| 1777977259 | 7.22° C | 97% | 1015.3 hPa | 0 mm | - | 0 W/m² | - |
| 1777976956 | 7.22° C | 97% | 1015.5 hPa | 0 mm | - | 0 W/m² | - |
| 1777976653 | 7.22° C | 97% | 1015.6 hPa | 0 mm | - | 0 W/m² | - |
| 1777976349 | 7.22° C | 96% | 1015.4 hPa | 0 mm | - | 0 W/m² | - |
| 1777976043 | 7.22° C | 96% | 1015.2 hPa | 0 mm | - | 0 W/m² | - |
* Rain latest hour (hover to see other rain measurements)
** Current wind speed in m/s (hover to see current wind gust speed)